Tracking 23611 objects as of 17-Sep-2021
HD Live streaming from Space Station
objects crossing your sky now
Track INSPIRATION-4

DELTA 1 DEB

Track DELTA 1 DEB now!
10-day predictions


NORAD ID: 37644
Int'l Code: 1978-026JF
Perigee: 793.6 km
Apogee: 875.5 km
Inclination: 98.8 °
Period: 101.5 minutes
Semi major axis: 7205 km
RCS: 0.0134 m2 (small)
Launch date: March 5, 1978
Source: United States (US)
Launch site: AIR FORCE WESTERN TEST RANGE (AFWTR)

Note: This is SATELLITE DEBRIS
aabbcc
Your satellite tracking list
Your tracking list is empty




NASA's NSSDC Master Catalog

Two Line Element Set (TLE):
1 37644U 78026JF  21258.51662240  .00000491  00000-0  25052-3 0  9992
2 37644  98.7740 146.1689 0056766 250.6982 108.8049 14.19392083426033
Source of the keplerian elements: AFSPC